This demonstration page uses our WeatherBlox Daily Observations layout. Learn more.

Left ArrowRight Arrow

41.86663, -103.66717

Hourly Observations for August 18, 2016

Temp ( °F °C ) Dew Point ( °F °C ) Humidity (%) Winds ( mph kmh ) Pressure ( in mb ) Visibility ( mi km ) Precip ( " mm )
12:53 am 00:53 Clear 68 20 49 9.4 51 51 SE 7 11 29.87 1012 10 16 0.00 0.00
1:53 am 01:53 Clear 62 16.7 52 11.1 70 70 ENE 3 6 29.88 1012 10 16 0.00 0.00
2:53 am 02:53 Clear 60 15.6 52 11.1 75 75 NE 5 7 29.86 1011 10 16 0.00 0.00
3:53 am 03:53 Clear 59 15 51 10.6 75 75 Calm 29.86 1011 10 16 0.00 0.00
4:53 am 04:53 Clear 57 13.9 51 10.6 81 81 E 3 6 29.85 1011 10 16 0.00 0.00
5:53 am 05:53 Clear 56 13.3 51 10.6 84 84 WNW 3 6 29.87 1012 10 16 0.00 0.00
6:53 am 06:53 Sunny 57 13.9 51 10.6 81 81 Calm 29.89 1012 10 16 0.00 0.00
7:53 am 07:53 Sunny 65 18.3 52 11.1 63 63 Calm 29.90 1012 10 16 0.00 0.00
8:53 am 08:53 Sunny 70 21.1 51 10.6 51 51 WNW 5 7 29.89 1012 10 16 0.00 0.00
9:53 am 09:53 Sunny 77 25 50 10 39 39 WNW 10 17 29.88 1012 10 16 0.00 0.00
10:53 am 10:53 Sunny 81 27.2 52 11.1 37 37 NW 10 17 29.87 1012 10 16 0.00 0.00
11:53 am 11:53 Sunny 87 30.6 53 11.7 31 31 W 10 17 29.84 1011 10 16 0.00 0.00
12:53 pm 12:53 Sunny 91 32.8 48 8.9 23 23 N 12 19 29.82 1010 10 16 0.00 0.00
1:53 pm 13:53 Sunny 93 33.9 48 8.9 21 21 NE 6 9 29.82 1010 10 16 0.00 0.00
2:53 pm 14:53 Sunny 93 33.9 48 8.9 21 21 N 14 22 29.81 1010 10 16 0.00 0.00
3:53 pm 15:53 Sunny 84 28.9 54 12.2 36 36 NNE 23 37 29.85 1011 10 16 0.00 0.00
4:53 pm 16:53 Sunny 79 26.1 56 13.3 45 45 N 21 33 29.87 1012 10 16 0.00 0.00
5:53 pm 17:53 Sunny with Light Rain 74 23.3 57 13.9 56 56 NNE 24 39 29.93 1014 10 16 0.00 0.03
6:41 pm 18:41 Cloudy with Nearby Thunderstorms 71 21.7 56 13.3 59 59 NNE 18 30 29.85 1011 10 16 0.00 0.03
6:53 pm 18:53 Mostly Cloudy with Nearby Thunderstorms 70 21.1 55 12.8 59 59 N 18 30 29.97 1015 10 16 0.00 0.03
7:53 pm 19:53 Cloudy with Thunderstorms 65 18.3 57 13.9 76 76 NE 10 17 30.01 1016 10 16 0.00 0.03
8:10 pm 20:10 Cloudy with Nearby Thunderstorms 63 17 57 14 83 83 E 9 15 29.97 1015 7 11 0.00 0.00
8:33 pm 20:33 Cloudy with Thunderstorms 63 17.2 59 15 87 87 SSW 9 15 29.97 1015 5 8 0.08 2.03
8:42 pm 20:42 Cloudy with Thunderstorms 63 17 59 15 88 88 SSW 10 17 29.97 1015 6 10 0.00 0.00
8:53 pm 20:53 Cloudy with Thunderstorms 62 16.7 59 15 90 90 SW 8 13 30.06 1018 4 6 0.13 3.30
9:04 pm 21:04 Cloudy with Nearby Thunderstorms 63 17 61 16 94 94 WNW 8 13 30.03 1017 3 5 0.00 0.00
9:28 pm 21:28 Cloudy with Thunderstorms 61 16.1 59 15 93 93 NNW 9 15 30.03 1017 4 6 0.14 3.56
9:40 pm 21:40 Cloudy with Nearby Thunderstorms 61 16 57 14 88 88 NNW 12 19 30.03 1017 4 6 0.00 0.00
9:51 pm 21:51 Cloudy with Rain 61 16 57 14 88 88 N 9 15 30.03 1017 5 8 0.21 5.33
9:53 pm 21:53 Cloudy with Rain 61 16.1 58 14.4 90 90 N 10 17 30.06 1018 5 8 0.22 5.59
10:53 pm 22:53 Cloudy with Rain 61 16.1 59 15 93 93 NE 14 22 30.00 1016 6 10 0.22 5.59
11:53 pm 23:53 Mostly Clear 61 16 N/A N/A NNW 7 11 29.98 1015 10 16 0.01 0.25

Powered by AerisWeather